Regional Weather Roundup
Issued by NWS

Home | Current Version | Previous Version | Graphics & Text | Print | Product List | Glossary On
Versions: 1 2 3 4 5 6 7 8 9 10 11 12 13 14 15 16 17 18 19 20 21 22 23 24 25 26 27 28 29 30 31 32 33 34 35 36 37 38 39 40 41 42 43 44 45 46 47 48 49 50
023
ASUS43 KIND 241259
RWRIN

WEATHER ROUNDUP FOR INDIANA
NATIONAL WEATHER SERVICE INDIANAPOLIS IN
800 AM EST TUE JAN 24 2017

NOTE: "FAIR" INDICATES FEW OR NO CLOUDS BELOW 12,000 FEET WITH NO
SIGNIFICANT WEATHER AND/OR OBSTRUCTIONS TO VISIBILITY.

* - STATION DOES NOT REPORT WEATHER SUCH AS PRECIPITATION OR FOG.

+ - STATION NOT QUALITY CONTROLLED BY THE NATIONAL WEATHER SERVICE.
    USE DATA WITH CAUTION...ESPECIALLY DEWPOINT AND RELATIVE
    HUMIDITY OBSERVATIONS.

INZ001>003-010>013-019-020-241400-
NORTHWEST INDIANA

CITY           SKY/WX    TMP DP  RH WIND       PRES   REMARKS
GARY /AIRPORT/ CLOUDY    39  34  81 NW3       29.88R
MONTICELLO +   CLOUDY    38  35  90 NW7       29.86R

$$

LMZ046-743>745-241400-
SOUTHERN LAKE MICHIGAN

STATION/POSITION TIME  TEMP    WIND        PRES    WAVE
                       AIR SEA DIR/SP/G            HT
                 (UTC) (F)     (DEG/KT/KT) (MB)    (FT)
BURNS HARBOR     1230   35     300/  8/  9 1011.9R

$$

INZ004-005-014>016-021>024-241400-
NORTH CENTRAL INDIANA

CITY           SKY/WX    TMP DP  RH WIND       PRES   REMARKS
ELKHART        MOCLDY    37  36  93 NW7       29.83R
GOSHEN         CLOUDY    38  34  85 W9        29.82R
SOUTH BEND     CLOUDY    37  35  92 NW8       29.84R

$$

INZ006>009-017-018-025>027-241400-
NORTHEAST INDIANA

CITY           SKY/WX    TMP DP  RH WIND       PRES   REMARKS
ANGOLA *+      CLOUDY    37  28  70 NW9       29.78R
FORT WAYNE     DRIZZLE   40  36  86 NW10      29.81R
KENDALLVILLE + CLOUDY    37  37 100 NW7       29.80R FOG

$$

INZ028-029-035-036-043>045-051>053-241400-
WEST CENTRAL INDIANA

CITY           SKY/WX    TMP DP  RH WIND       PRES   REMARKS
CRAWFORDSVL +  CLOUDY    37  37 100 W6        29.88S
LAFAYETTE      CLOUDY    38  35  89 NW7       29.88R
TERRE HAUTE    CLOUDY    40  32  73 N8        29.89S

$$

INZ030>032-037>040-046>048-054>057-064-065-241400-
CENTRAL INDIANA

CITY           SKY/WX    TMP DP  RH WIND       PRES   REMARKS
COLUMBUS       CLOUDY    39  37  93 NW8       29.87R
INDIANAPOLIS   CLOUDY    39  33  79 NW12      29.87R
-EAGLE CREEK   CLOUDY    40  33  76 NW7       29.86R
KOKOMO +       CLOUDY    38  34  85 NW10      29.85R
MT COMFORT *+  CLOUDY    37  34  87 NW10      29.86R
SHELBYVILLE    CLOUDY    41  35  79 NW9       29.85R

$$

INZ033-034-041-042-049-050-058-059-241400-
EAST CENTRAL INDIANA

CITY           SKY/WX    TMP DP  RH WIND       PRES   REMARKS
MUNCIE         CLOUDY    40  37  89 NW12      29.82R

$$

INZ060-061-067>069-081>083-085>088-241400-
SOUTHWEST INDIANA

CITY           SKY/WX    TMP DP  RH WIND       PRES   REMARKS
EVANSVILLE     CLOUDY    41  33  73 CALM      29.93R
HUNTINGBURG *+ CLOUDY    40  34  79 NW5       29.92R

$$

INZ062-063-066-070>080-084-089>092-241400-
SOUTH CENTRAL AND SOUTHEAST INDIANA

CITY           SKY/WX    TMP DP  RH WIND       PRES   REMARKS
BLOOMINGTON    CLOUDY    40  32  73 NW3       29.87R
MADISON *+     CLOUDY    39  37  93 W5        29.87S
SEYMOUR +      CLOUDY    41  36  81 W7        29.87R

$$





USA.gov is the U.S. government's official web portal to all federal, state and local government web resources and services.